Regional Weather Roundup
Issued by NWS

Home | Current Version | Previous Version | Text Only | Print | Product List | Glossary On
Versions: 1 2 3 4 5 6 7 8 9 10 11 12 13 14 15 16 17 18 19 20 21 22 23 24 25 26 27 28 29 30 31 32 33 34 35 36 37 38 39 40 41 42 43 44 45 46 47 48 49 50
000
ASUS43 KDMX 210807
RWRIA

WEATHER ROUNDUP FOR IOWA
NATIONAL WEATHER SERVICE DES MOINES IA
300 AM CDT TUE APR 21 2015

NOTE: "FAIR" INDICATES FEW OR NO CLOUDS BELOW 12,000 FEET WITH NO
SIGNIFICANT WEATHER AND/OR OBSTRUCTIONS TO VISIBILITY.

* - THESE STATIONS ARE NOT NWS STATIONS...THUS NOT UNDER NWS
QUALITY CONTROL.  THEY ALSO DO NOT REPORT WEATHER SUCH
AS PRECIPITATION OR FOG.

IAZ001>003-012>014-020>022-031>034-043>046-210900-
   NORTHWEST IOWA

CITY           SKY/WX    TMP DP  RH WIND       PRES   REMARKS
CARROLL *      CLEAR     34  23  64 W10       29.75R WCI  26
CHEROKEE *     CLEAR     32  21  64 W3        29.75S
DENISON *      CLEAR     36  19  51 W8        29.75R WCI  29
LE MARS *      CLEAR     32  18  55 CALM      29.77F
ORANGE CITY *  CLEAR     30  18  59 NW3       29.74F
SHELDON *      CLEAR     32  27  80 W9        29.71F WCI  24
SIOUX CITY     CLEAR     36  15  42 W8        29.78S WCI  30
SPENCER        CLEAR     35  26  69 W13       29.71S WCI  26
STORM LAKE *   CLEAR     30  23  74 W13       29.74F WCI  20
$$

IAZ055>058-069>071-079>083-090>094-210900-
   SOUTHWEST IOWA

CITY           SKY/WX    TMP DP  RH WIND       PRES   REMARKS
ATLANTIC *     MOCLDY    37  23  56 W9        29.78S WCI  31
AUDUBON *      CLEAR     36  21  55 W3        29.76S
CLARINDA *     PTCLDY    41  28  60 W9        29.82S
COUNCIL BLFS * MOCLDY    45  21  39 W10       29.80S
CRESTON *      MOCLDY    37  25  60 W13       29.77S WCI  29
HARLAN  *      PTCLDY    36  23  60 W12       29.81S WCI  27
LAMONI         CLEAR     41  26  55 W10       29.77S
RED OAK *      CLOUDY    41  28  60 W8        29.80S
SHENANDOAH *   MOCLDY    39  30  70 W5        29.82S
$$

IAZ047>049-059>061-072>074-084-210900-
   CENTRAL IOWA

CITY           SKY/WX    TMP DP  RH WIND       PRES   REMARKS
AMES           CLEAR     36  29  75 W9        29.72S WCI  29
ANKENY *       CLEAR     37  25  60 W10       29.73R WCI  30
CHARITON *     PTCLDY    41  23  48 W10G17    29.74S
DES MOINES     CLEAR     38  22  52 NW7       29.74R WCI  33
GRINNELL*      CLEAR     37  30  75 W9        29.71S WCI  31
KNOXVILLE *    CLEAR     36  23  60 W9        29.72R WCI  29
MARSHALLTOWN   CLEAR     38  30  73 W13       29.68S WCI  30
PELLA *        CLEAR     39  28  65 W8        29.73S WCI  34
PERRY *          N/A     36  27  69 NW8       29.74S WCI  29
$$

IAZ004>006-015-016-023>025-035-036-210900-
   NORTH CENTRAL IOWA

CITY           SKY/WX    TMP DP  RH WIND       PRES   REMARKS
ALGONA *       CLEAR     36  28  75 W13       29.68F WCI  27
CLARION *      CLEAR     36  30  80 W15       29.68S WCI  26
ESTHERVILLE    CLEAR     35  26  69 W16       29.67F WCI  25
FORT DODGE *   CLEAR     37  27  65 W9        29.72S WCI  31
MASON CITY     CLEAR     35  28  75 W17       29.64F WCI  25
FOREST CITY *  CLEAR     34  30  86 W15       29.63F WCI  24
IOWA FALLS *     N/A     36  30  80 W12       29.69S WCI  27
$$

IAZ007>011-017>019-026>030-037>042-050>054-066-210900-
   NORTHEAST IOWA

CITY           SKY/WX    TMP DP  RH WIND       PRES   REMARKS
CEDAR RAPIDS   CLEAR     37  31  78 W14       29.66S WCI  28
CHARLES CITY * CLOUDY    37  32  81 W12G22    29.62S WCI  30
CLINTON *      CLEAR     36  28  75 W13       29.67S WCI  27
DECORAH *      CLOUDY    37  30  75 W9G22     29.56S WCI  31
DUBUQUE        PTCLDY    37  28  70 W17G24    29.60S WCI  27
MONTICELLO *   CLEAR     37  32  81 W10G16    29.63S WCI  30
OELWEIN *      MOCLDY    37  30  75 W16       29.62F WCI  28
WATERLOO       CLEAR     37  29  72 W15       29.65R WCI  28
$$

IAZ064-065-067-068-078-210900-
   EAST CENTRAL IOWA

CITY           SKY/WX    TMP DP  RH WIND       PRES   REMARKS
DAVENPORT      CLEAR     38  30  73 W14       29.66F WCI  30
IOWA CITY      CLEAR     38  32  79 W8        29.69F WCI  32
MT. PLEASANT * CLEAR     36  27  69 W5        29.71S WCI  32
MUSCATINE *    CLEAR     37  32  81 W7        29.70S WCI  32
QUAD CITIES    CLEAR     41  30  65 W10       29.67F
$$

IAZ062-063-075>077-085>089-095>099-210900-
   SOUTHEAST IOWA

CITY           SKY/WX    TMP DP  RH WIND       PRES   REMARKS
BURLINGTON     CLEAR     37  28  70 SW8       29.70F WCI  31
FAIRFIELD *    CLEAR     36  25  64 W7        29.72R WCI  30
FORT MADISON * CLEAR     41  27  56 SW8       29.72F
KEOKUK *       CLEAR     41  27  56 W10       29.73S
OSKALOOSA *      N/A     34  27  75 W8        29.72S WCI  27
CENTERVILLE *  CLEAR     39  27  60 SW12      29.76S WCI  32
OTTUMWA        CLEAR     35  23  61 NW7       29.72R WCI  29
WASHINGTON *   CLEAR     36  30  80 W6        29.70F WCI  31
$$

ABBREVIATIONS USED IN REMARKS
   TC - TEMPERATURES IN CELSIUS
  WCI - WIND CHILL INDEX
   HX - HEAT INDEX
  VSB - VISIBILITY
$$



USA.gov is the U.S. government's official web portal to all federal, state and local government web resources and services.